Letecké školy

Flying Academy USA

Flying Academy USA

Miami, FL & Los Angeles, CA

Flying Academy ČR

Flying Academy ČR

Praha & Brno, Česká Republika

Letecká škola Flying Academy

Letecká škola Flying Academy má více než 12 let zkušeností s výcvikem profesionálních pilotů v Evropě a přes 30 let v USA. Jsme jednou z nejdynamičtěji rostoucích leteckých škol poskytujících vysoký standard leteckého výcviku v prostředí simulujícím atmosféru v aeroliniích.

  • Flying Academy je EASA certifikovaná výcviková organizace (CZ/ATO-014) a FAA certifikovaná letecká škola podle Part 141 & 61, působíme v České Republice a v USA
  • Naši instruktoři jsou současně i piloty aerolinií – získáte reálné zkušenosti pilota
  • Dostanete zdarma iPad mini při zahájení ab-initio výcvikového programu
  • Naše výcvikové kurzy jsou navrženy pro budoucí EASA a FAA soukromé a komerční piloty

Vítejte ve světě, kde práce je náš koníček! Každý v našem týmu ve Flying Academy se těší z úspěchů našich studentů. Diky skvělému zázemí, přístupu a nabídce naší letecké školy se ujistíte, že jste na správném místě k dosažení Vašich snů ve Flying Academy.

Proč si vybrat Flying Academy - přečtěte si více >>

 

Novinky

Flying Academy Vás srdečně zve na Dny otevřených dveří!

 
Vybrat si tu pravou školu pro pilotní výcvik je velmi významný krok. Je důležité správně si vybrat lokalitu, vhodné výcvikové kurzy a být dobře seznámen s náklady, které Vás výcvik bude stát.
Jestliže sníte o kariéře profesionálního pilota nebo jen o občasném létání pro potěšení, Den otevřených dveří každé pilotní školy je ideální příležitostí, jak si všechny důležité otázky zodpovědět. 
Flying Academy, největší mezinárodní letecká škola v České republice pro bude den otevřených dveří pořádat 24. března. Navštivte naše základny v Brně a v Praze a zjistěte, jak se stát profesionálním pilotem dronů a letadel. 
Setkejte se s naším týmem, který pro vás bude k dispozici po celý den. Provedeme Vás našimi pobočkami a rádi Vám zodpovíme jakékoliv dotazy z oblasti létání, výcviku, nákladech a technice, se kterou létáme. Budete mít také speciální příležitost navštívit naše hangáry a prohlédnout si letouny, na kterých naši studenti výcvik provádí.  
Splňte si svůj sen a udělejte první krok směrem k Vaší kariéře profesionálního pilota.
V den otevřených dveří bude provšechny nové studenty připravena speciální promo akce.

celý článek >>

Zapomeňte na zimu! Létejte ve slunném Miami nebo Los Angeles.

Zapomeňte na zimní podmínky v Evropě. Chopte se příležitosti a létejte svůj Time Building v USA. Vyberte si Miami nebo Los Angeles a létejte nad nádhernými sceneriemi hor, moří nebo národních parků a získejte zkušenosti, které nikde jinde nezískáte. Naše základny nabízejí jedinečnou příležitost létat v oblastech s největším leteckým provozem na světě. Získejte zkušenosti s létáním a s radiokomunikací v takovém prostředí.

celý článek >>

Profesionální simulátor pro piloty

Flying Academy s.r.o., mezinárodní EASA a FAA certifikovaná letecká škola vám nyní nabízí všem pilotům možnost létat na našem novém obecném multi motorovém simulátoru s pístovými motory na naší základně v na letišti v Brně Tuřanech.

celý článek >>

více článků

Blog

Zahraniční letecká zkušenost, kterou získáte jen s Flying Academy v Miami

Díky otevření nové pobočky Flying Academy v Miami ve Spojených státech dostalo mnoho studentů, kteří dosud znali jen evropský vzdušný prostor, příležitost vyzkoušet si výcvik dle předpisů FAA v americkém vzdušném prostoru. Díky výhodným balíčkům Time Buildingu, které Flying Academy nabízí, se pilotům s evropskou licencí veškerý nálet v Americe započítá po jejich návratu do České republiky.

Student Abdollah Mohammadpour, který se zúčastnil výcviku 0-ATPL, vysvětluje, jak tato zkušenost změnila celý jeho pohled na letecký výcvik: "Jako student, pilot se zkušenostmi pouze v neřízeném vzdušném prostoru s malým provozem, jsem se rozhodl využít příležitosti od Flying Academy a rozšířit své znalosti v USA. Po příletu do Miami na mě čekal řidič od Flying Academy, který mě odvezl do vily. Vila se nacházela jen pár minut jízdy od letiště a měla na zahradě i velký bazén. Personál Flying Academy mi se vším pomáhal stejně jako v Praze."

pokračovat ve čtení >>

více článků

0 - 500 hodin

Flying Academy s.r.o.
Beranových 130
Praha 9 - Letnany
199 00

800 884 888

+420 228 882 444

www.flyingacademy.cz
pilot@FlyingAcademy.cz

facebook.com/FlyingAcademy
twitter.com/FlyingAcademy
youtube.com/FlyingAcademy

Aktuální počasí

LKTB

LKTB 242330Z 04004KT CAVOK 14/07 Q1015 NOSIG

LKPR

LKPR 242330Z 19005KT CAVOK 11/07 Q1013 NOSIG

LKKV

LKKV 242300Z VRB02KT CAVOK 08/05 Q1014

KTMB

KTMB 242353Z 26010KT 10SM CLR 27/19 A2993 RMK AO2 SLP135 T02670194 10344 20267 53015

Začněte program 0-1500 a získejte 1500 letových hodin s Flying Academy Získejte více informací